DW9614 Weather Reports


Display with metric or nautical units.
time (UTC)temp
F
wind
direction
speed
MPH
gust
MPH
rain 1hr
in
rain 24hr
in
rain mn
in
humidity
%
barometer
mb
20260502123037 43 81 0.0 1.0 0.00 0.00 0.00 67 1019.5
20260502121527 43 86 0.0 5.0 0.00 0.00 0.00 70 1019.3
20260502114523 41 44 0.0 1.0 0.00 0.00 0.00 76 1018.9
20260502113022 41 46 0.0 1.0 0.00 0.00 0.00 77 1018.8
20260502111521 41 46 0.0 0.0 0.00 0.00 0.00 77 1018.8
20260502110023 41 46 0.0 0.0 0.00 0.00 0.00 77 1018.8
20260502104523 40 46 0.0 1.0 0.00 0.00 0.00 77 1018.7
20260502103019 40 45 0.0 1.0 0.00 0.00 0.00 77 1018.7
20260502101518 40 46 0.0 1.0 0.00 0.00 0.00 78 1018.7
20260502071505 41 46 0.0 1.0 0.00 0.00 0.00 81 1018.2
20260502070003 41 46 0.0 1.0 0.00 0.00 0.00 80 1018.3
20260502064614 42 44 0.0 0.0 0.00 0.00 0.00 80 1018.2
20260502063107 43 51 0.0 1.0 0.00 0.00 0.00 79 1018.1
20260502061612 44 53 0.0 1.0 0.00 0.00 0.00 79 1018.2
20260502060053 44 55 0.0 1.0 0.00 0.00 0.00 78 1018.1
20260502054552 45 55 0.0 1.0 0.00 0.00 0.00 77 1018.2
20260502053057 45 55 0.0 1.0 0.00 0.00 0.00 76 1018.1
20260502051547 46 55 0.0 1.0 0.00 0.00 0.00 76 1018.1
20260502050048 46 52 0.0 3.0 0.00 0.01 0.00 75 1018.1
20260502044545 46 59 0.0 1.0 0.00 0.01 0.00 74 1018.1
20260502043050 47 56 0.0 1.0 0.00 0.01 0.00 72 1018.2
20260502041550 47 57 1.0 4.0 0.00 0.01 0.00 71 1018.2
20260502040044 48 58 0.0 3.0 0.00 0.02 0.00 69 1018.2
20260502034545 48 59 0.0 1.0 0.00 0.02 0.00 69 1018.1
20260502033042 49 57 0.0 1.0 0.00 0.02 0.00 70 1018.2
20260502031543 49 57 0.0 0.0 0.00 0.02 0.00 69 1018.1
20260502030140 49 57 0.0 0.0 0.00 0.02 0.00 69 1018.1
20260502024538 49 57 0.0 0.0 0.00 0.02 0.00 70 1017.9
20260502023036 49 57 0.0 0.0 0.00 0.02 0.00 69 1017.7
20260502021537 48 57 0.0 0.0 0.00 0.02 0.00 69 1017.4
20260502020034 49 57 0.0 0.0 0.00 0.02 0.00 69 1017.2
20260502014533 49 57 0.0 0.0 0.00 0.02 0.00 68 1017.1
20260502013030 49 57 0.0 1.0 0.00 0.02 0.00 67 1016.8
20260502011532 50 57 0.0 0.0 0.00 0.02 0.00 66 1016.4
20260502010028 50 57 0.0 1.0 0.00 0.02 0.00 65 1016.4
20260502004528 50 57 0.0 1.0 0.00 0.02 0.00 64 1016.3
20260502003027 51 55 0.0 1.0 0.00 0.02 0.00 63 1016.1
20260502001528 51 49 0.0 1.0 0.00 0.02 0.00 62 1016.1
20260502000026 52 74 1.0 5.0 0.00 0.02 0.00 60 1015.8
20260501234526 53 84 3.0 10.0 0.00 0.02 0.00 58 1015.8
20260501233026 54 325 0.0 0.0 0.00 0.02 0.00 54 1015.9
20260501231525 55 294 3.0 7.0 0.00 0.02 0.00 55 1016.0
20260501230029 55 331 0.0 7.0 0.00 0.02 0.00 55 1016.0
20260501224524 55 335 4.0 7.0 0.00 0.02 0.00 56 1016.2
20260501223023 55 323 0.0 1.0 0.00 0.02 0.00 54 1016.4
20260501221527 53 355 2.0 6.0 0.00 0.02 0.00 60 1016.4
20260501220022 53 304 6.0 13.0 0.00 0.02 0.00 67 1016.6
20260501214521 55 324 6.0 12.0 0.00 0.02 0.00 50 1016.4
20260501213021 56 291 3.0 7.0 0.00 0.02 0.00 50 1016.2
20260501211521 56 355 2.0 10.0 0.00 0.02 0.00 49 1016.1
20260501210020 56 321 4.0 10.0 0.00 0.02 0.00 47 1016.1
20260501204519 56 14 3.0 9.0 0.00 0.02 0.00 47 1016.2
20260501203021 58 327 0.0 11.0 0.00 0.02 0.00 47 1016.4
20260501201518 56 344 3.0 10.0 0.00 0.02 0.00 50 1016.4
20260501200021 56 283 3.0 9.0 0.00 0.02 0.00 49 1016.6
20260501194618 57 340 1.0 7.0 0.00 0.02 0.00 49 1016.7
20260501193019 58 322 5.0 10.0 0.00 0.02 0.00 48 1016.7
20260501191514 58 329 4.0 9.0 0.00 0.02 0.00 47 1016.7
20260501190012 57 328 0.0 7.0 0.00 0.02 0.00 50 1016.7
20260501184519 58 336 4.0 8.0 0.00 0.02 0.00 49 1016.7
20260501183015 56 340 6.0 12.0 0.00 0.02 0.00 52 1016.5
20260501181511 57 346 0.0 4.0 0.00 0.02 0.00 52 1016.4
20260501180015 55 320 4.0 10.0 0.00 0.02 0.00 52 1016.5
20260501174526 57 343 2.0 11.0 0.00 0.02 0.00 53 1016.6
20260501173008 57 313 2.0 8.0 0.00 0.02 0.00 51 1016.6
20260501171506 57 341 4.0 10.0 0.00 0.02 0.00 53 1016.6
20260501170004 56 334 1.0 7.0 0.00 0.02 0.00 56 1016.6
20260501164507 53 355 3.0 9.0 0.00 0.02 0.00 58 1016.7
20260501163002 53 355 4.0 12.0 0.00 0.02 0.00 62 1016.6
20260501161600 55 315 4.0 8.0 0.00 0.02 0.00 61 1016.7
20260501160106 54 5 5.0 11.0 0.00 0.02 0.00 64 1016.6
20260501154607 54 330 2.0 11.0 0.00 0.02 0.00 61 1016.6
20260501153055 51 325 3.0 9.0 0.00 0.02 0.00 70 1016.6
20260501151556 50 333 4.0 11.0 0.00 0.02 0.00 71 1016.4
20260501150051 51 324 5.0 12.0 0.00 0.02 0.00 73 1016.3
20260501144550 49 338 5.0 11.0 0.00 0.02 0.00 74 1016.3
20260501143048 48 321 4.0 13.0 0.00 0.02 0.00 76 1016.2
20260501141550 47 295 4.0 11.0 0.00 0.02 0.00 75 1016.1